| time (UTC) | temp F | wind direction | speed knots | gust knots | rain 1hr in | rain 24hr in | rain mn in | humidity % | barometer mb |
| 20260510203021 | 74 | 28 | 9.6 | 13.9 | 0.00 | 0.00 | 0.00 | 65 | 1017.1 |
| 20260510201523 | 75 | 62 | 7.8 | 14.8 | 0.00 | 0.00 | 0.00 | 65 | 1017.3 |
| 20260510200024 | 76 | 29 | 9.6 | 13.9 | 0.00 | 0.00 | 0.00 | 63 | 1017.3 |
| 20260510194526 | 78 | 49 | 7.0 | 12.2 | 0.00 | 0.00 | 0.00 | 61 | 1016.9 |
| 20260510193017 | 77 | 49 | 6.1 | 13.0 | 0.00 | 0.00 | 0.00 | 60 | 1016.9 |
| 20260510191526 | 77 | 29 | 6.1 | 8.7 | 0.00 | 0.00 | 0.00 | 60 | 1017.0 |
| 20260510190032 | 77 | 59 | 4.3 | 10.4 | 0.00 | 0.00 | 0.00 | 61 | 1017.0 |
| 20260510184527 | 77 | 57 | 4.3 | 8.7 | 0.00 | 0.00 | 0.00 | 62 | 1017.2 |
| 20260510183028 | 76 | 75 | 3.5 | 8.7 | 0.00 | 0.00 | 0.00 | 64 | 1017.3 |
| 20260510181518 | 76 | 61 | 3.5 | 7.0 | 0.00 | 0.00 | 0.00 | 64 | 1017.1 |
| 20260510180022 | 76 | 96 | 3.5 | 7.0 | 0.00 | 0.00 | 0.00 | 62 | 1017.2 |
| 20260510174523 | 76 | 70 | 3.5 | 8.7 | 0.00 | 0.00 | 0.00 | 61 | 1017.2 |
| 20260510173027 | 76 | 61 | 4.3 | 8.7 | 0.00 | 0.00 | 0.00 | 59 | 1017.3 |
| 20260510171537 | 76 | 57 | 2.6 | 8.7 | 0.00 | 0.00 | 0.00 | 61 | 1017.2 |
| 20260510170020 | 76 | 68 | 6.1 | 9.6 | 0.00 | 0.00 | 0.00 | 59 | 1017.3 |
| 20260510164524 | 74 | 79 | 3.5 | 7.8 | 0.00 | 0.00 | 0.00 | 60 | 1017.3 |
| 20260510163026 | 74 | 130 | 0.9 | 5.2 | 0.00 | 0.00 | 0.00 | 60 | 1017.4 |
| 20260510161525 | 73 | 128 | 0.0 | 3.5 | 0.00 | 0.00 | 0.00 | 57 | 1017.3 |
| 20260510160033 | 73 | 102 | 2.6 | 5.2 | 0.00 | 0.00 | 0.00 | 56 | 1017.4 |
| 20260510154520 | 72 | 136 | 0.0 | 2.6 | 0.00 | 0.00 | 0.00 | 58 | 1017.4 |
| 20260510153036 | 72 | 326 | 0.0 | 1.7 | 0.00 | 0.00 | 0.00 | 57 | 1017.4 |
| 20260510151528 | 71 | 326 | 0.0 | 2.6 | 0.00 | 0.00 | 0.00 | 60 | 1017.3 |
| 20260510150026 | 70 | 180 | 0.9 | 2.6 | 0.00 | 0.00 | 0.00 | 65 | 1017.1 |
| 20260510144529 | 69 | 200 | 0.0 | 2.6 | 0.00 | 0.00 | 0.00 | 66 | 1017.0 |
| 20260510143022 | 68 | 181 | 0.9 | 2.6 | 0.00 | 0.00 | 0.00 | 72 | 1016.9 |
| 20260510141527 | 67 | 181 | 0.0 | 2.6 | 0.00 | 0.00 | 0.00 | 74 | 1016.8 |
| 20260510140026 | 66 | 227 | 0.0 | 0.0 | 0.00 | 0.00 | 0.00 | 76 | 1016.6 |
| 20260510134526 | 65 | 227 | 0.0 | 1.7 | 0.00 | 0.00 | 0.00 | 78 | 1016.5 |
| 20260510133027 | 64 | 105 | 0.0 | 1.7 | 0.00 | 0.00 | 0.00 | 80 | 1016.4 |
| 20260510131523 | 63 | 104 | 0.0 | 0.9 | 0.00 | 0.00 | 0.00 | 79 | 1016.4 |
| 20260510130014 | 62 | 104 | 0.0 | 1.7 | 0.00 | 0.00 | 0.00 | 79 | 1016.5 |
| 20260510124514 | 61 | 104 | 1.7 | 2.6 | 0.00 | 0.00 | 0.00 | 79 | 1016.2 |
| 20260510123020 | 61 | 85 | 1.7 | 3.5 | 0.00 | 0.00 | 0.00 | 81 | 1016.2 |
| 20260510121524 | 60 | 166 | 0.0 | 1.7 | 0.00 | 0.00 | 0.00 | 84 | 1016.1 |
| 20260510120024 | 59 | 168 | 0.0 | 3.5 | 0.00 | 0.00 | 0.00 | 85 | 1016.1 |
| 20260510114527 | 58 | 292 | 0.9 | 2.6 | 0.00 | 0.00 | 0.00 | 86 | 1016.3 |
| 20260510113023 | 58 | 292 | 0.0 | 0.0 | 0.00 | 0.00 | 0.00 | 84 | 1015.7 |
| 20260510111522 | 58 | 292 | 0.0 | 0.0 | 0.00 | 0.00 | 0.00 | 86 | 1015.2 |
| 20260510110037 | 58 | 292 | 0.0 | 1.7 | 0.00 | 0.00 | 0.00 | 86 | 1014.9 |
| 20260510104528 | 57 | 292 | 0.0 | 1.7 | 0.00 | 0.00 | 0.00 | 87 | 1014.7 |
| 20260510103027 | 57 | 292 | 0.0 | 0.9 | 0.00 | 0.00 | 0.00 | 87 | 1014.3 |
| 20260510101518 | 57 | 292 | 0.0 | 1.7 | 0.00 | 0.00 | 0.00 | 86 | 1014.4 |
| 20260510100023 | 58 | 292 | 0.0 | 1.7 | 0.00 | 0.00 | 0.00 | 83 | 1014.3 |
| 20260510094506 | 58 | 292 | 0.0 | 3.5 | 0.00 | 0.00 | 0.00 | 83 | 1014.0 |
| 20260510093010 | 58 | 283 | 0.0 | 0.9 | 0.00 | 0.00 | 0.00 | 83 | 1014.1 |
| 20260510091514 | 59 | 283 | 1.7 | 3.5 | 0.00 | 0.00 | 0.00 | 83 | 1014.0 |
| 20260510090022 | 58 | 320 | 0.0 | 1.7 | 0.00 | 0.00 | 0.00 | 83 | 1013.7 |
| 20260510084504 | 59 | 320 | 0.0 | 0.0 | 0.00 | 0.00 | 0.00 | 84 | 1013.4 |
| 20260510083007 | 58 | 320 | 0.0 | 1.7 | 0.00 | 0.00 | 0.00 | 83 | 1013.3 |
| 20260510081514 | 59 | 320 | 0.0 | 0.0 | 0.00 | 0.00 | 0.00 | 83 | 1013.3 |
| 20260510080035 | 59 | 320 | 0.0 | 0.0 | 0.00 | 0.00 | 0.00 | 82 | 1013.4 |
| 20260510074526 | 59 | 320 | 0.0 | 0.0 | 0.00 | 0.00 | 0.00 | 83 | 1013.2 |
| 20260510073004 | 59 | 320 | 0.0 | 0.0 | 0.00 | 0.00 | 0.00 | 81 | 1013.1 |
| 20260510071515 | 60 | 320 | 0.0 | 0.0 | 0.00 | 0.00 | 0.00 | 80 | 1013.1 |
| 20260510070014 | 60 | 320 | 0.0 | 0.0 | 0.00 | 0.00 | 0.00 | 80 | 1013.2 |
| 20260510064518 | 61 | 320 | 0.0 | 0.0 | 0.00 | 0.00 | 0.00 | 77 | 1013.4 |
| 20260510063029 | 61 | 320 | 0.0 | 0.0 | 0.00 | 0.00 | 0.00 | 77 | 1013.7 |
| 20260510061524 | 62 | 320 | 0.0 | 1.7 | 0.00 | 0.00 | 0.00 | 75 | 1013.6 |
| 20260510060031 | 64 | 320 | 0.9 | 2.6 | 0.00 | 0.00 | 0.00 | 68 | 1013.4 |
| 20260510054519 | 63 | 290 | 0.0 | 1.7 | 0.00 | 0.00 | 0.00 | 68 | 1013.4 |
| 20260510053022 | 63 | 271 | 0.9 | 2.6 | 0.00 | 0.00 | 0.00 | 73 | 1013.3 |
| 20260510051526 | 63 | 271 | 0.0 | 0.9 | 0.00 | 0.00 | 0.00 | 71 | 1013.1 |
| 20260510050026 | 64 | 271 | 0.0 | 3.5 | 0.00 | 0.00 | 0.00 | 70 | 1013.1 |
| 20260510044513 | 64 | 271 | 0.9 | 1.7 | 0.00 | 0.00 | 0.00 | 68 | 1013.0 |
| 20260510043018 | 65 | 271 | 0.9 | 2.6 | 0.00 | 0.00 | 0.00 | 67 | 1012.9 |
| 20260510041526 | 65 | 271 | 0.9 | 1.7 | 0.00 | 0.00 | 0.00 | 68 | 1013.1 |
| 20260510040026 | 65 | 271 | 0.9 | 2.6 | 0.00 | 0.00 | 0.00 | 67 | 1012.9 |
| 20260510034528 | 66 | 271 | 0.9 | 2.6 | 0.00 | 0.00 | 0.00 | 64 | 1012.9 |
| 20260510033014 | 66 | 237 | 0.9 | 2.6 | 0.00 | 0.00 | 0.00 | 62 | 1012.9 |
| 20260510031525 | 67 | 237 | 0.9 | 2.6 | 0.00 | 0.00 | 0.00 | 62 | 1012.9 |
| 20260510030023 | 67 | 255 | 0.0 | 0.0 | 0.00 | 0.00 | 0.00 | 61 | 1012.8 |
| 20260510024528 | 67 | 255 | 0.0 | 0.0 | 0.00 | 0.00 | 0.00 | 62 | 1012.6 |
| 20260510023003 | 66 | 255 | 0.0 | 0.0 | 0.00 | 0.00 | 0.00 | 66 | 1012.5 |
| 20260510021514 | 68 | 255 | 0.0 | 1.7 | 0.00 | 0.00 | 0.00 | 60 | 1012.3 |
| 20260510020004 | 69 | 255 | 0.0 | 5.2 | 0.00 | 0.00 | 0.00 | 54 | 1012.1 |
| 20260510014510 | 69 | 227 | 0.0 | 1.7 | 0.00 | 0.00 | 0.00 | 60 | 1011.8 |
| 20260510013005 | 71 | 227 | 0.0 | 0.9 | 0.00 | 0.00 | 0.00 | 55 | 1011.8 |
| 20260510011506 | 72 | 227 | 0.0 | 1.7 | 0.00 | 0.00 | 0.00 | 39 | 1011.6 |
| 20260510010015 | 72 | 227 | 0.0 | 0.9 | 0.00 | 0.00 | 0.00 | 55 | 1011.5 |
| 20260510004505 | 73 | 227 | 0.0 | 1.7 | 0.00 | 0.00 | 0.00 | 46 | 1011.4 |
| 20260510003007 | 78 | 175 | 0.0 | 0.9 | 0.00 | 0.00 | 0.00 | 29 | 1011.0 |
| 20260510001507 | 79 | 175 | 0.0 | 0.0 | 0.00 | 0.00 | 0.00 | 32 | 1010.9 |
| 20260510000008 | 79 | 175 | 0.0 | 0.9 | 0.00 | 0.00 | 0.00 | 31 | 1010.9 |
| 20260509234510 | 79 | 176 | 0.0 | 1.7 | 0.00 | 0.00 | 0.00 | 31 | 1010.9 |
| 20260509233006 | 81 | 161 | 0.0 | 3.5 | 0.00 | 0.00 | 0.00 | 27 | 1010.7 |
| 20260509231510 | 81 | 192 | 0.9 | 4.3 | 0.00 | 0.00 | 0.00 | 28 | 1010.6 |
| 20260509230021 | 81 | 146 | 0.0 | 3.5 | 0.00 | 0.00 | 0.00 | 30 | 1010.6 |
| 20260509224510 | 81 | 266 | 0.0 | 3.5 | 0.00 | 0.00 | 0.00 | 27 | 1010.5 |
| 20260509223011 | 81 | 157 | 0.0 | 5.2 | 0.00 | 0.00 | 0.00 | 29 | 1010.6 |
| 20260509221513 | 82 | 258 | 1.7 | 5.2 | 0.00 | 0.00 | 0.00 | 28 | 1010.5 |
| 20260509220011 | 82 | 252 | 1.7 | 4.3 | 0.00 | 0.00 | 0.00 | 27 | 1010.6 |
| 20260509214513 | 82 | 230 | 2.6 | 6.1 | 0.00 | 0.00 | 0.00 | 28 | 1010.6 |
| 20260509213018 | 81 | 240 | 0.9 | 8.7 | 0.00 | 0.00 | 0.00 | 26 | 1010.7 |
| 20260509211515 | 82 | 150 | 1.7 | 5.2 | 0.00 | 0.00 | 0.00 | 27 | 1010.8 |
| 20260509210014 | 82 | 171 | 1.7 | 5.2 | 0.00 | 0.00 | 0.00 | 28 | 1010.8 |
| 20260509204515 | 81 | 180 | 0.9 | 7.0 | 0.00 | 0.00 | 0.00 | 30 | 1010.8 |